Zurück zum Katalog

STARLINK-37195

AktivKommunikationSSO
NORAD 68662·PAYLOAD·🇺🇸 United States

Gestartet Apr 11, 2026 von Vandenberg Space Force Base

Loading…

Nächste Überflüge (nächste 24 Stunden)

TLE

AktuellSource: CelesTrak SupGP

Epoche: Sep 15, 2026, 04:24 UTC

1 68662C 26077A   26258.18381944 -.00009482  00000+0 -29421-3 0  2584
2 68662  97.2850 128.0822 0001879  95.7330 264.8617 15.33456258    13

Verfolge STARLINK-37195 in Echtzeit mit AllMySat

Download on the App Store